Regional Weather Roundup
Issued by NWS Cleveland, OH

Home | Current Version | Previous Version | Text Only | Print | Product List | Glossary Off
Versions: 1 2 3 4 5 6 7 8 9 10 11 12 13 14 15 16 17 18 19 20 21 22 23 24 25 26 27 28 29 30 31 32 33 34 35 36 37 38 39 40 41 42 43 44 45 46 47 48 49 50

000
ASUS41 KCLE 301210
RWRCLE
OHIO REGIONAL WEATHER ROUNDUP
NATIONAL WEATHER SERVICE CLEVELAND, OH
800 AM EDT SAT AUG 30 2014

NOTE: "FAIR" INDICATES FEW OR NO CLOUDS BELOW 12,000 FEET WITH NO
SIGNIFICANT WEATHER AND/OR OBSTRUCTIONS TO VISIBILITY.

OHZ001>008-015>018-024>027-034-035-043-044-301300-
   NORTHWEST OHIO

CITY           SKY/WX    TMP DP  RH WIND       PRES   REMARKS
DEFIANCE       CLEAR     73  64  73 S9        29.98S
FINDLAY        SUNNY     70  65  84 S9        30.01S
TOLEDO EXPRESS SUNNY     71  64  78 S7        29.98S
TOLEDO EXEC    SUNNY     71  63  75 S9        30.00R
LIMA           SUNNY     72  66  81 S9        30.02S
$$

OHZ009>014-019>023-028>033-038-089-301300-
   NORTHEAST OHIO

CITY           SKY/WX    TMP DP  RH WIND       PRES   REMARKS
CLE-HOPKINS    MOSUNNY   72  60  66 S10       30.06S
CLE-LAKEFRONT  SUNNY     71  58  63 S12       30.02S
CUY CO. ARPT   MOSUNNY   72  61  68 S14       30.05S
LORAIN-ELYRIA  SUNNY     70  60  70 S7        30.05R
ASHTABULA      CLOUDY    66  58  75 S10       30.09S
AKRON-CANTON   PTSUNNY   68  59  73 S5        30.09S
WOOSTER        SUNNY     66  59  78 S6        30.09S
MANSFIELD      SUNNY     71  64  78 S9        30.08R
YOUNGSTOWN     CLOUDY    66  59  78 SE7       30.11R
$$

OHZ042-051>053-060>062-070>072-077>081-301300-
  SOUTHWEST OHIO

CITY           SKY/WX    TMP DP  RH WIND       PRES   REMARKS
CINC-COVINGTON MOCLDY    72  65  78 S8        30.06S
CINC-LUNKEN    CLEAR     70  68  93 CALM      30.06S
HAMILTON       CLEAR     70  69  97 CALM      30.06R
DAYTON         MOSUNNY   73  67  81 S8        30.06S
WRIGHT-PAT AFB SUNNY     71  69  93 CALM      30.05F
DAYTON GENERAL CLEAR     71  67  87 S8        30.05S
WILMINGTON     SUNNY     71  67  87 S6        30.07S FOG
$$

OHZ036-037-039>041-045>050-054>059-063>069-073>076-082>088-301300-
  CENTRAL AND SOUTHEAST OHIO

CITY           SKY/WX    TMP DP  RH WIND       PRES   REMARKS
COLUMBUS       MOSUNNY   73  64  73 SE3       30.07S
OSU AIRPORT    SUNNY     71  64  78 S6        30.07S
BOLTON FIELD   MOSUNNY   66  64  94 S5        30.09R
RICKENBACK AFB SUNNY     69  61  77 CALM      30.07S
NEWARK         MOSUNNY   64  61  90 CALM      30.08S
MARION         SUNNY     68  62  81 S9        30.06S
LANCASTER      SUNNY     71  65  81 SE3       30.08S
ZANESVILLE     MOSUNNY   68  63  84 CALM      30.09S
NEW PHILLY     MOSUNNY   63  61  93 SE5       30.10S
$$


USA.gov is the U.S. government's official web portal to all federal, state and local government web resources and services.